Flag for U.S.A. Weather past 2 weeks in Jackson, Wyoming, U.S.A.

Now
30 °F

Sunny.


Feels Like: 30 °F
Forecast: 27 / 57 °F
Wind: No wind

Location: Jackson Hole

Current Time: Mar 31, 2015 at 9:56:55 AM

Latest Report: Mar 31, 2015 at 8:51 AM


Visibility: 10 mi

Pressure: 30.08 "Hg

Humidity: 80%

Dew point: 25 °F

Location of JacksonLocation

Historic Weather in Jackson — Graph

°F

Jackson temperature yesterday

Maximum temperature yesterday: 59 °F (at 4:56 PM)
Minimum temperature yesterday: 25 °F (at 4:55 AM)
Average temperature yesterday: 35 °F

Past Weeks' High & Low Weather Summary

 TemperatureHumidityPressure
High59 °F (Mar 27, 5:51 PM)100% (Mar 19, 2:55 AM)30.39 "Hg (Mar 19, 2:55 AM)
Low16 °F (Mar 26, 6:51 AM)18% (Mar 30, 5:52 PM)29.90 "Hg (Mar 24, 3:03 PM)
Average34 °F73%30.17 "Hg
* Reported Mar 16 8:51 AM — Mar 31 8:51 AM, Jackson, Weather by CustomWeather, © 2015

Note: Actual official high and low records may vary slightly from our data, if they occured in-between our weather recording intervals... More about our weather records

Advertising

Jackson weather history for previous 24 hours

 ConditionsComfort  
Time TempWeatherWind HumidityBarometerVisibility
8:51 AM
Tue, Mar 31
30 °FSunny.No wind80%30.08 "Hg10 mi
7:51 AM27 °FClear.No wind93%30.09 "Hg10 mi
6:51 AM25 °FClear.No wind93%30.11 "Hg10 mi
6:35 AM25 °FClear.No wind93%30.11 "Hg10 mi
6:15 AM25 °FClear.6 mph86%30.10 "Hg10 mi
5:55 AM25 °FClear.7 mph93%30.11 "Hg10 mi
5:35 AM27 °FClear.7 mph93%30.10 "Hg10 mi
5:15 AM27 °FClear.6 mph86%30.11 "Hg10 mi
4:55 AM27 °FClear.6 mph93%30.12 "Hg10 mi
4:35 AM27 °FClear.7 mph93%30.13 "Hg10 mi
4:15 AM28 °FClear.7 mph80%30.13 "Hg10 mi
3:55 AM27 °FClear.3 mph86%30.14 "Hg10 mi
3:35 AM27 °FClear.3 mph86%30.14 "Hg10 mi
3:15 AM27 °FClear.8 mph86%30.14 "Hg10 mi
2:55 AM28 °FClear.6 mph86%30.15 "Hg10 mi
2:35 AM28 °FClear.9 mph80%30.15 "Hg10 mi
2:15 AM28 °FClear.6 mph86%30.16 "Hg10 mi
1:55 AM28 °FClear.8 mph86%30.16 "Hg10 mi
1:35 AM28 °FClear.6 mph86%30.16 "Hg10 mi
1:15 AM30 °FClear.9 mph80%30.16 "Hg10 mi
12:55 AM30 °FClear.10 mph80%30.16 "Hg10 mi
12:35 AM30 °FClear.6 mph80%30.17 "Hg10 mi
12:15 AM34 °FClear.3 mph70%30.17 "Hg10 mi
11:55 PM
Mon, Mar 30
30 °FClear.5 mph86%30.17 "Hg10 mi
11:35 PM32 °FClear.8 mph75%30.17 "Hg10 mi
11:15 PM32 °FClear.9 mph75%30.17 "Hg10 mi
10:55 PM34 °FClear.8 mph70%30.17 "Hg10 mi
10:35 PM36 °FClear.7 mph70%30.17 "Hg10 mi
10:15 PM34 °FClear.No wind75%30.17 "Hg10 mi
9:55 PM36 °FClear.9 mph70%30.17 "Hg10 mi
9:15 PM43 °FClear.No wind39%30.18 "Hg10 mi
8:55 PM45 °FClear.8 mph34%30.17 "Hg10 mi
7:52 PM48 °FSunny.No wind32%30.16 "Hg10 mi
6:52 PM57 °FSunny.7 mph21%30.15 "Hg10 mi
5:52 PM59 °FSunny.5 mph18%30.16 "Hg10 mi
4:56 PM59 °FSunny.7 mph20%30.17 "Hg10 mi
3:51 PM57 °FSunny.12 mph20%30.20 "Hg10 mi
2:51 PM57 °FSunny.10 mph20%30.22 "Hg10 mi
1:51 PM57 °FSunny.9 mph25%30.24 "Hg10 mi
12:51 PM52 °FSunny.No wind35%30.27 "Hg10 mi
11:51 AM45 °FSunny.No wind46%30.28 "Hg10 mi
10:51 AM39 °FSunny.No wind56%30.30 "Hg10 mi
9:51 AM34 °FSunny.5 mph70%30.30 "Hg10 mi
Weather by CustomWeather, © 2015

See weather overviewHow to use our weather pages